sat.trackr.live / text

‹ back to catalog

STARLINK-36031

NORAD 66593 · 2025-270F

PAYLOAD ACTIVE UNKNOWN

§ Identity

Operator
Country
US
Launch date
2025-11-22
Launch site
AFETR
Launch vehicle
Mass (kg)
RCS (m²)

Purposes: comms

External: N2YO · Heavens-Above · Gunter

§ Orbital elements

Epoch: 2026-09-20T15:25:22.145952Z

Period
94.27 min
Inclination
42.9991°
Eccentricity
0.0001082
Mean motion
15.27593959 rev/d
Perigee alt
482.3 km
Apogee alt
483.7 km
Semi-major
6,861.1 km
B*
5.3432e-4
RAAN
34.9915°
Arg perigee
248.2260°
Mean anomaly
111.8476°
Rev number
4,752

§ Raw data

STARLINK-360311 66593U 25270F   26263.64261743  .00014476  00000+0  53432-3 0  99982 66593  42.9991  34.9915 0001082 248.2260 111.8476 15.27593959 47522

JSON: /api/v1/satellites/66593 · /tle

For live sub-satellite position, see the globe view (requires WebGL).

§ Visibility from observer

Set your observer location to see the next 7 days of passes ≥ 10°. The values pass through the URL so the page stays shareable.

No JS? Fill the form by hand. The geolocation button needs JavaScript.